{"data":{"norad_id":67126,"epoch":"2026-05-24T21:42:52.873632Z","epoch_age_seconds":83554,"freshness":"FRESH","line1":"1 67126U 25299AA  26144.90477863 -.00007521  00000+0 -26428-3 0  9991","line2":"2 67126  43.0005  98.4469 0001369 247.7711 112.2995 15.27554834 24777","mean_motion":15.27554834,"eccentricity":0.0001369,"inclination_deg":43.0005,"raan_deg":98.4469,"arg_perigee_deg":247.7711,"mean_anomaly_deg":112.2995,"bstar":-0.00026428,"rev_number":2477,"period_min":94.268301729586,"perigee_km":482.1851464387,"apogee_km":484.06375982456,"semimajor_km":6861.2614531316,"source":"CELESTRAK","updated_at":"2026-05-25T13:38:21.478166Z"}}